| time (UTC) | temp F | wind direction | speed knots | gust knots | rain 1hr in | rain 24hr in | rain mn in | humidity % | barometer mb |
| 20260508043342 | 54 | 355 | 0.0 | 0.0 | 0.00 | 1.11 | 0.00 | 94 | 1015.0 |
| 20260508041833 | 54 | 355 | 0.9 | 1.7 | 0.00 | 1.11 | 0.00 | 94 | 1015.0 |
| 20260508040350 | 54 | 355 | 0.9 | 1.7 | 0.00 | 1.11 | 0.00 | 94 | 1014.7 |
| 20260508034830 | 54 | 18 | 0.9 | 2.6 | 0.00 | 1.11 | 1.11 | 94 | 1014.3 |
| 20260508033332 | 54 | 38 | 0.9 | 2.6 | 0.00 | 1.11 | 1.11 | 93 | 1014.1 |
| 20260508031852 | 54 | 51 | 0.9 | 1.7 | 0.00 | 1.11 | 1.11 | 93 | 1014.2 |
| 20260508030325 | 54 | 51 | 0.0 | 0.0 | 0.00 | 1.11 | 1.11 | 93 | 1014.0 |
| 20260508024824 | 54 | 51 | 0.0 | 0.9 | 0.00 | 1.11 | 1.11 | 93 | 1013.9 |
| 20260508023324 | 54 | 51 | 0.0 | 1.7 | 0.00 | 1.11 | 1.11 | 93 | 1013.8 |
| 20260508021908 | 54 | 51 | 0.9 | 2.6 | 0.00 | 1.11 | 1.11 | 93 | 1013.7 |
| 20260508020339 | 54 | 49 | 0.0 | 0.9 | 0.00 | 1.11 | 1.11 | 93 | 1013.7 |
| 20260508014825 | 54 | 49 | 0.0 | 1.7 | 0.02 | 1.11 | 1.11 | 93 | 1013.5 |
| 20260508013344 | 53 | 49 | 0.9 | 1.7 | 0.11 | 1.11 | 1.11 | 92 | 1012.9 |
| 20260508011836 | 53 | 49 | 0.0 | 1.7 | 0.11 | 1.11 | 1.11 | 92 | 1012.9 |
| 20260508010334 | 54 | 44 | 0.9 | 1.7 | 0.11 | 1.11 | 1.11 | 92 | 1012.8 |
| 20260508004848 | 54 | 355 | 1.7 | 2.6 | 0.08 | 1.08 | 1.08 | 92 | 1013.0 |
| 20260508003330 | 54 | 249 | 0.0 | 2.6 | 0.00 | 1.00 | 1.00 | 92 | 1012.8 |
| 20260508001844 | 54 | 70 | 2.6 | 7.8 | 0.00 | 1.00 | 1.00 | 92 | 1011.7 |
| 20260508000327 | 54 | 101 | 1.7 | 5.2 | 0.00 | 1.00 | 1.00 | 92 | 1011.8 |
| 20260507234853 | 54 | 341 | 3.5 | 7.0 | 0.00 | 1.00 | 1.00 | 92 | 1011.8 |
| 20260507233328 | 54 | 63 | 0.9 | 4.3 | 0.00 | 1.00 | 1.00 | 92 | 1011.9 |
| 20260507231856 | 54 | 39 | 2.6 | 7.0 | 0.00 | 1.00 | 1.00 | 92 | 1011.9 |
| 20260507230332 | 54 | 68 | 3.5 | 7.0 | 0.00 | 1.00 | 1.00 | 92 | 1011.5 |
| 20260507224846 | 54 | 80 | 5.2 | 8.7 | 0.00 | 1.00 | 1.00 | 92 | 1011.4 |
| 20260507223337 | 54 | 59 | 2.6 | 7.8 | 0.00 | 1.00 | 1.00 | 93 | 1011.4 |
| 20260507221828 | 54 | 77 | 2.6 | 7.8 | 0.00 | 1.00 | 1.00 | 92 | 1011.2 |
| 20260507220344 | 54 | 94 | 5.2 | 10.4 | 0.00 | 1.00 | 1.00 | 92 | 1011.2 |
| 20260507214834 | 55 | 38 | 4.3 | 8.7 | 0.00 | 1.00 | 1.00 | 92 | 1010.9 |
| 20260507213332 | 55 | 29 | 4.3 | 11.3 | 0.03 | 1.00 | 1.00 | 92 | 1010.8 |
| 20260507211845 | 56 | 90 | 5.2 | 11.3 | 0.10 | 1.00 | 1.00 | 92 | 1010.7 |
| 20260507210326 | 56 | 9 | 3.5 | 8.7 | 0.17 | 1.00 | 1.00 | 93 | 1010.4 |
| 20260507204836 | 57 | 76 | 1.7 | 5.2 | 0.23 | 1.00 | 1.00 | 93 | 1010.4 |
| 20260507203328 | 57 | 17 | 2.6 | 7.0 | 0.21 | 0.97 | 0.97 | 92 | 1010.1 |
| 20260507201848 | 58 | 46 | 2.6 | 8.7 | 0.14 | 0.90 | 0.90 | 92 | 1010.1 |
| 20260507200335 | 60 | 40 | 1.7 | 7.8 | 0.06 | 0.82 | 0.82 | 93 | 1010.0 |
| 20260507194848 | 60 | 105 | 1.7 | 10.4 | 0.01 | 0.77 | 0.77 | 92 | 1010.0 |
| 20260507193327 | 61 | 251 | 2.6 | 9.6 | 0.00 | 0.76 | 0.76 | 92 | 1009.9 |
| 20260507191846 | 61 | 294 | 2.6 | 9.6 | 0.00 | 0.76 | 0.76 | 93 | 1009.8 |
| 20260507190350 | 62 | 123 | 1.7 | 7.8 | 0.00 | 0.76 | 0.76 | 92 | 1009.3 |
| 20260507184834 | 63 | 85 | 2.6 | 7.8 | 0.00 | 0.76 | 0.76 | 92 | 1009.8 |
| 20260507183332 | 66 | 80 | 3.5 | 10.4 | 0.00 | 0.76 | 0.76 | 90 | 1009.1 |
| 20260507181849 | 71 | 200 | 1.7 | 3.5 | 0.00 | 0.76 | 0.76 | 95 | 1009.0 |
| 20260507180349 | 70 | 246 | 1.7 | 4.3 | 0.00 | 0.76 | 0.76 | 94 | 1009.5 |
| 20260507174909 | 70 | 234 | 3.5 | 7.0 | 0.00 | 0.76 | 0.76 | 94 | 1009.1 |
| 20260507173332 | 70 | 248 | 3.5 | 7.8 | 0.00 | 0.76 | 0.76 | 95 | 1008.9 |
| 20260507171850 | 69 | 241 | 1.7 | 4.3 | 0.00 | 0.76 | 0.76 | 94 | 1009.2 |
| 20260507170338 | 69 | 251 | 0.9 | 4.3 | 0.00 | 0.76 | 0.76 | 94 | 1009.6 |
| 20260507164846 | 69 | 220 | 2.6 | 5.2 | 0.00 | 0.76 | 0.76 | 94 | 1010.2 |
| 20260507163325 | 69 | 201 | 0.9 | 5.2 | 0.01 | 0.76 | 0.76 | 94 | 1010.3 |
| 20260507161845 | 68 | 221 | 2.6 | 5.2 | 0.03 | 0.76 | 0.76 | 94 | 1010.5 |
| 20260507160327 | 68 | 242 | 4.3 | 9.6 | 0.05 | 0.76 | 0.76 | 94 | 1010.3 |
| 20260507154827 | 68 | 209 | 2.6 | 5.2 | 0.10 | 0.76 | 0.76 | 94 | 1010.1 |
| 20260507153324 | 68 | 212 | 0.9 | 6.1 | 0.13 | 0.75 | 0.75 | 94 | 1010.3 |
| 20260507151909 | 67 | 194 | 2.6 | 9.6 | 0.14 | 0.73 | 0.73 | 94 | 1010.7 |
| 20260507150338 | 68 | 221 | 3.5 | 12.2 | 0.14 | 0.71 | 0.71 | 94 | 1011.0 |
| 20260507144830 | 68 | 228 | 4.3 | 10.4 | 0.11 | 0.65 | 0.65 | 94 | 1011.2 |
| 20260507143331 | 68 | 244 | 1.7 | 7.8 | 0.08 | 0.62 | 0.62 | 94 | 1011.2 |
| 20260507141849 | 68 | 197 | 1.7 | 7.0 | 0.05 | 0.59 | 0.59 | 93 | 1011.2 |
| 20260507140407 | 68 | 243 | 1.7 | 5.2 | 0.03 | 0.57 | 0.57 | 93 | 1011.2 |
| 20260507134827 | 69 | 197 | 1.7 | 5.2 | 0.00 | 0.54 | 0.54 | 93 | 1011.3 |
| 20260507133326 | 68 | 302 | 0.9 | 4.3 | 0.00 | 0.54 | 0.54 | 94 | 1011.0 |
| 20260507131843 | 68 | 216 | 2.6 | 7.0 | 0.00 | 0.54 | 0.54 | 94 | 1011.1 |
| 20260507130400 | 68 | 231 | 0.9 | 7.8 | 0.00 | 0.54 | 0.54 | 94 | 1010.8 |
| 20260507124849 | 68 | 257 | 1.7 | 5.2 | 0.00 | 0.54 | 0.54 | 94 | 1011.1 |
| 20260507123338 | 68 | 220 | 2.6 | 6.1 | 0.01 | 0.54 | 0.54 | 94 | 1011.2 |
| 20260507121828 | 68 | 244 | 1.7 | 3.5 | 0.01 | 0.54 | 0.54 | 93 | 1011.4 |
| 20260507120348 | 67 | 214 | 1.7 | 4.3 | 0.01 | 0.54 | 0.54 | 93 | 1011.5 |
| 20260507114846 | 67 | 238 | 1.7 | 3.5 | 0.02 | 0.54 | 0.54 | 93 | 1012.0 |
| 20260507113337 | 67 | 184 | 0.0 | 3.5 | 0.01 | 0.53 | 0.53 | 93 | 1011.9 |
| 20260507111828 | 67 | 219 | 1.7 | 4.3 | 0.02 | 0.53 | 0.53 | 93 | 1012.0 |
| 20260507110346 | 67 | 211 | 2.6 | 6.1 | 0.03 | 0.53 | 0.53 | 93 | 1011.8 |
| 20260507104838 | 67 | 225 | 2.6 | 5.2 | 0.02 | 0.52 | 0.52 | 92 | 1011.5 |
| 20260507103333 | 67 | 227 | 0.9 | 5.2 | 0.02 | 0.52 | 0.52 | 92 | 1011.5 |
| 20260507101846 | 67 | 239 | 1.7 | 4.3 | 0.02 | 0.51 | 0.51 | 92 | 1011.8 |
| 20260507100327 | 67 | 219 | 1.7 | 7.0 | 0.01 | 0.50 | 0.50 | 92 | 1011.3 |
| 20260507094827 | 67 | 204 | 1.7 | 7.0 | 0.06 | 0.50 | 0.50 | 92 | 1011.3 |
| 20260507093343 | 67 | 246 | 1.7 | 7.0 | 0.10 | 0.49 | 0.49 | 91 | 1011.2 |
| 20260507091846 | 67 | 254 | 3.5 | 7.0 | 0.11 | 0.49 | 0.49 | 92 | 1011.4 |
| 20260507090331 | 67 | 225 | 2.6 | 7.8 | 0.13 | 0.49 | 0.49 | 91 | 1011.5 |
| 20260507084849 | 67 | 217 | 2.6 | 7.8 | 0.10 | 0.44 | 0.44 | 91 | 1011.9 |
| 20260507083338 | 67 | 224 | 1.7 | 5.2 | 0.06 | 0.39 | 0.39 | 90 | 1012.3 |
| 20260507081843 | 67 | 257 | 0.0 | 3.5 | 0.05 | 0.38 | 0.38 | 89 | 1012.0 |
| 20260507080333 | 67 | 142 | 0.0 | 1.7 | 0.03 | 0.36 | 0.36 | 87 | 1012.2 |
| 20260507074859 | 67 | 141 | 0.0 | 1.7 | 0.01 | 0.34 | 0.34 | 87 | 1012.4 |
| 20260507073332 | 67 | 140 | 0.9 | 2.6 | 0.00 | 0.33 | 0.33 | 87 | 1012.1 |
| 20260507071849 | 67 | 227 | 0.0 | 0.9 | 0.00 | 0.33 | 0.33 | 87 | 1012.4 |
| 20260507070339 | 67 | 227 | 0.0 | 0.0 | 0.00 | 0.33 | 0.33 | 86 | 1012.7 |
| 20260507064843 | 67 | 227 | 0.0 | 0.9 | 0.00 | 0.33 | 0.33 | 85 | 1012.7 |
| 20260507063345 | 68 | 227 | 0.0 | 1.7 | 0.00 | 0.33 | 0.33 | 85 | 1013.0 |
| 20260507061826 | 68 | 227 | 0.9 | 2.6 | 0.08 | 0.33 | 0.33 | 87 | 1013.7 |
| 20260507060340 | 68 | 219 | 0.0 | 1.7 | 0.19 | 0.33 | 0.33 | 85 | 1012.9 |
| 20260507054846 | 68 | 219 | 0.0 | 3.5 | 0.32 | 0.33 | 0.33 | 86 | 1012.9 |
| 20260507053351 | 69 | 113 | 0.0 | 3.5 | 0.32 | 0.32 | 0.32 | 84 | 1012.7 |
| 20260507051831 | 69 | 225 | 0.9 | 3.5 | 0.24 | 0.24 | 0.24 | 85 | 1014.7 |
| 20260507050327 | 70 | 170 | 1.7 | 4.3 | 0.13 | 0.13 | 0.13 | 82 | 1014.8 |
| 20260507044838 | 71 | 248 | 0.9 | 7.0 | 0.01 | 0.01 | 0.01 | 80 | 1014.4 |